GW0143 Weather Reports


time (UTC)temp
F
wind
direction
speed
knots
gust
knots
rain 1hr
in
rain 24hr
in
rain mn
in
humidity
%
barometer
mb
20260507105520 17 141 3.5 4.3 0.00 0.00 0.00 84 1021.1
20260507104520 18 147 4.3 7.0 0.00 0.00 0.00 83 1021.2
20260507103520 18 145 4.3 5.2 0.00 0.00 0.00 83 1021.2
20260507102520 16 134 4.3 7.0 0.00 0.00 0.00 84 1021.3
20260507101522 15 152 5.2 7.0 0.00 0.00 0.00 85 1021.4
20260507100541 15 179 5.2 7.0 0.00 0.00 0.00 86 1021.5
20260507095521 18 188 3.5 5.2 0.00 0.00 0.00 83 1021.6
20260507094533 17 72 0.9 3.5 0.00 0.00 0.00 86 1021.6
20260507093538 15 63 2.6 3.5 0.00 0.00 0.00 85 1021.5
20260507092521 12 182 4.3 7.0 0.00 0.00 0.00 87 1021.6
20260507091522 15 224 3.5 6.1 0.00 0.00 0.00 83 1021.5
20260507090522 15 159 2.6 4.3 0.00 0.00 0.00 86 1021.3
20260507085518 15 119 2.6 3.5 0.00 0.00 0.00 87 1021.3
20260507084519 13 129 2.6 3.5 0.00 0.00 0.00 88 1021.3
20260507083522 14 146 4.3 6.1 0.00 0.00 0.00 85 1021.3
20260507082516 16 129 2.6 4.3 0.00 0.00 0.00 85 1021.2
20260507081517 16 144 3.5 5.2 0.00 0.00 0.00 84 1021.2
20260507080519 16 144 2.6 2.6 0.00 0.00 0.00 86 1021.3
20260507075523 16 155 2.6 5.2 0.00 0.00 0.00 86 1021.4
20260507074544 15 145 4.3 5.2 0.00 0.00 0.00 87 1021.3
20260507073520 18 154 2.6 3.5 0.00 0.00 0.00 84 1021.5
20260507072520 17 113 0.9 1.7 0.00 0.00 0.00 86 1021.6
20260507071620 16 86 0.9 2.6 0.00 0.00 0.00 86 1021.4
20260507070521 17 221 0.9 1.7 0.00 0.00 0.00 87 1021.3
20260507065520 18 241 1.7 2.6 0.00 0.00 0.00 85 1021.2
20260507064521 18 226 2.6 3.5 0.00 0.00 0.00 85 1021.2
20260507063525 21 271 3.5 6.1 0.00 0.00 0.00 80 1021.0
20260507062541 21 114 2.6 4.3 0.00 0.00 0.00 84 1021.0
20260507061543 23 109 1.7 4.3 0.00 0.00 0.00 81 1020.9
20260507060519 22 132 3.5 5.2 0.00 0.00 0.00 81 1020.8
20260507055519 22 126 4.3 5.2 0.00 0.00 0.00 82 1020.7
20260507054519 20 141 5.2 7.0 0.00 0.00 0.00 85 1020.6
20260507053519 19 165 4.3 6.1 0.00 0.00 0.00 85 1020.7
20260507052520 18 189 3.5 6.1 0.00 0.00 0.00 87 1020.6
20260507051543 18 151 1.7 3.5 0.00 0.00 0.00 86 1020.5
20260507050600 20 191 5.2 7.0 0.00 0.00 0.00 85 1020.6
20260507045522 23 211 2.6 3.5 0.00 0.00 0.00 82 1020.7
20260507044520 23 136 5.2 7.0 0.00 0.00 0.00 83 1020.5
20260507043520 22 141 4.3 6.1 0.00 0.00 0.00 84 1020.5
20260507042540 21 129 4.3 6.1 0.00 0.00 0.00 86 1020.5
20260507041521 20 135 4.3 6.1 0.00 0.00 0.00 86 1020.4
20260507040521 19 147 4.3 5.2 0.00 0.00 0.00 86 1020.4
20260507035601 18 161 3.5 5.2 0.00 0.00 0.00 87 1020.5
20260507034521 17 172 4.3 6.1 0.00 0.00 0.00 88 1020.5
20260507033521 18 185 5.2 7.0 0.00 0.00 0.00 87 1020.4
20260507032521 18 166 4.3 5.2 0.00 0.00 0.00 88 1020.3
20260507031522 18 172 4.3 5.2 0.00 0.00 0.00 87 1020.2
20260507030522 19 181 3.5 4.3 0.00 0.00 0.00 87 1020.2
20260507025522 19 192 5.2 6.1 0.00 0.00 0.00 87 1020.1
20260507024516 21 214 2.6 4.3 0.00 0.00 0.00 87 1019.9
20260507023522 22 201 3.5 6.1 0.00 0.00 0.00 86 1019.8
20260507022523 22 132 5.2 7.0 0.00 0.00 0.00 86 1019.8
20260507021543 21 135 4.3 6.1 0.00 0.00 0.00 86 1019.7
20260507020526 22 164 2.6 3.5 0.00 0.00 0.00 85 1019.7
20260507015526 23 174 2.6 3.5 0.00 0.00 0.00 85 1019.6
20260507014523 24 177 4.3 6.1 0.00 0.00 0.00 84 1019.3
20260507013526 26 186 3.5 4.3 0.00 0.00 0.00 83 1019.4
20260507012526 27 160 3.5 4.3 0.00 0.00 0.00 80 1019.3
20260507011518 28 160 3.5 5.2 0.00 0.00 0.00 79 1019.3
20260507010527 28 164 2.6 3.5 0.00 0.00 0.00 80 1019.4
20260507005527 28 177 0.9 0.9 0.00 0.00 0.00 79 1019.2
20260507004527 30 214 1.7 2.6 0.00 0.00 0.00 75 1019.0
20260507003527 31 235 1.7 2.6 0.00 0.00 0.00 69 1018.9
20260507002518 30 244 2.6 4.3 0.00 0.00 0.00 73 1019.0
20260507001519 29 261 4.3 5.2 0.00 0.00 0.00 74 1018.9
20260507000519 30 262 3.5 5.2 0.00 0.00 0.00 76 1018.9
20260506235528 31 288 3.5 4.3 0.00 0.00 0.00 72 1018.9
20260506234519 30 297 3.5 4.3 0.00 0.00 0.00 75 1018.8
20260506233520 30 323 3.5 5.2 0.00 0.00 0.00 76 1018.6
20260506232520 31 341 3.5 5.2 0.00 0.00 0.00 75 1018.5
20260506231520 30 343 4.3 6.1 0.00 0.00 0.00 76 1018.4
20260506230520 31 320 3.5 5.2 0.00 0.00 0.00 75 1018.3
20260506225521 32 322 3.5 7.0 0.00 0.00 0.00 74 1018.1
20260506224520 32 331 3.5 6.1 0.00 0.02 0.00 72 1018.0
20260506223521 33 321 2.6 4.3 0.00 0.02 0.00 71 1018.0
20260506222530 34 323 1.7 3.5 0.00 0.02 0.00 67 1018.0
20260506221530 32 249 0.9 3.5 0.00 0.02 0.00 69 1018.1
20260506220530 33 306 1.7 2.6 0.00 0.02 0.00 71 1018.0
20260506215530 31 13 1.7 3.5 0.00 0.02 0.00 77 1018.1
20260506214531 31 349 1.7 3.5 0.00 0.03 0.00 80 1018.0
20260506213531 31 12 1.7 2.6 0.00 0.03 0.00 79 1017.9
20260506212531 30 345 1.7 2.6 0.00 0.03 0.00 84 1018.0
20260506211531 30 352 1.7 3.5 0.00 0.03 0.00 86 1018.1
20260506210551 29 359 2.6 3.5 0.00 0.03 0.00 88 1018.1
20260506205523 28 332 2.6 5.2 0.00 0.03 0.00 86 1018.3
20260506204523 29 329 3.5 5.2 0.00 0.03 0.00 88 1018.2
20260506203603 29 341 4.3 7.0 0.00 0.03 0.00 88 1018.1
20260506202517 30 339 4.3 6.1 0.00 0.03 0.00 88 1017.9
20260506201517 32 355 2.6 4.3 0.00 0.03 0.00 90 1017.7
20260506200538 31 332 3.5 5.2 0.00 0.03 0.00 89 1017.6
20260506195533 31 320 2.6 3.5 0.00 0.03 0.00 90 1017.5
20260506194533 31 278 1.7 3.5 0.00 0.03 0.00 93 1017.5
20260506193518 30 320 3.5 6.1 0.00 0.03 0.00 93 1017.7
20260506192518 29 320 4.3 6.1 0.00 0.03 0.00 94 1017.7
20260506191538 28 341 4.3 7.8 0.00 0.03 0.00 93 1017.8
20260506190518 26 350 7.8 10.4 0.00 0.03 0.00 93 1017.8
20260506185517 26 349 7.8 10.4 0.00 0.03 0.00 93 1017.8
20260506184517 26 346 7.0 11.3 0.00 0.03 0.00 93 1017.8
20260506183519 25 319 4.3 7.0 0.00 0.03 0.00 93 1017.6
20260506182520 25 329 2.6 4.3 0.00 0.03 0.00 93 1017.6
20260506181534 24 319 2.6 5.2 0.00 0.03 0.00 92 1017.6
20260506180538 24 354 3.5 7.0 0.00 0.03 0.00 92 1017.8
20260506175518 24 24 3.5 6.1 0.00 0.03 0.00 92 1017.8
20260506174517 24 44 7.0 9.6 0.00 0.03 0.00 92 1017.7
20260506173558 25 45 9.6 13.0 0.00 0.03 0.00 91 1017.4
20260506172517 27 348 7.0 10.4 0.00 0.03 0.00 92 1017.4
20260506171518 27 308 3.5 6.1 0.00 0.03 0.00 92 1017.2
20260506170519 27 285 2.6 3.5 0.00 0.03 0.00 92 1016.9
20260506165519 27 229 4.3 7.0 0.00 0.03 0.00 91 1016.3
20260506164518 27 217 7.0 9.6 0.00 0.03 0.00 91 1015.7
20260506163518 28 213 8.7 11.3 0.00 0.03 0.00 91 1015.3
20260506162518 28 204 8.7 11.3 0.00 0.03 0.00 91 1015.3
20260506161519 28 198 7.8 12.2 0.00 0.03 0.00 92 1015.2
20260506160518 28 205 7.8 9.6 0.00 0.03 0.00 92 1015.3
20260506155519 27 204 7.0 11.3 0.00 0.03 0.00 92 1015.3
20260506154539 27 196 7.8 10.4 0.00 0.03 0.00 92 1015.3
20260506153519 28 202 7.8 9.6 0.00 0.03 0.00 92 1015.2
20260506152519 27 195 7.0 9.6 0.00 0.03 0.00 92 1015.2
20260506151537 27 198 7.8 13.0 0.00 0.03 0.00 92 1015.1
20260506150521 26 196 7.0 7.8 0.00 0.03 0.00 92 1015.2
20260506145522 26 203 7.0 8.7 0.00 0.03 0.00 92 1015.3
20260506144521 26 196 6.1 7.8 0.00 0.03 0.00 92 1015.5
20260506143522 26 192 4.3 5.2 0.00 0.03 0.00 91 1015.7
20260506142522 25 144 4.3 4.3 0.00 0.03 0.00 91 1015.6